TimeCDT,TemperatureF,Dew PointF,Humidity,Sea Level PressureIn,VisibilityMPH,Wind Direction,Wind SpeedMPH,Gust SpeedMPH,PrecipitationIn,Events,Conditions,WindDirDegrees,DateUTC
12:15 AM,60.8,50.0,68,30.15,10.0,South,8.1,-,N/A,,Overcast,170,2012-10-11 05:15:00
12:35 AM,60.8,51.8,72,30.15,10.0,South,10.4,-,N/A,,Overcast,170,2012-10-11 05:35:00
12:55 AM,60.8,51.8,72,30.14,10.0,South,8.1,-,N/A,,Overcast,170,2012-10-11 05:55:00
1:15 AM,60.8,51.8,72,30.14,10.0,SSE,8.1,-,N/A,,Overcast,160,2012-10-11 06:15:00
1:55 AM,60.8,51.8,72,30.14,10.0,South,6.9,-,N/A,,Overcast,180,2012-10-11 06:55:00
2:15 AM,60.8,51.8,72,30.14,10.0,SSW,4.6,-,N/A,,Overcast,210,2012-10-11 07:15:00
2:35 AM,60.8,51.8,72,30.13,10.0,South,4.6,-,N/A,,Overcast,190,2012-10-11 07:35:00
2:55 AM,60.8,51.8,72,30.13,10.0,SSW,3.5,-,N/A,,Overcast,200,2012-10-11 07:55:00
3:15 AM,60.8,51.8,72,30.12,10.0,SSW,3.5,-,N/A,,Overcast,210,2012-10-11 08:15:00
3:35 AM,60.8,51.8,72,30.12,10.0,SSW,4.6,-,N/A,,Mostly Cloudy,200,2012-10-11 08:35:00
3:55 AM,60.8,51.8,72,30.12,10.0,SSW,4.6,-,N/A,,Mostly Cloudy,210,2012-10-11 08:55:00
4:15 AM,60.8,53.6,77,30.11,10.0,SSW,3.5,-,N/A,,Overcast,200,2012-10-11 09:15:00
4:35 AM,60.8,53.6,77,30.10,10.0,SSW,3.5,-,N/A,,Overcast,200,2012-10-11 09:35:00
4:55 AM,60.8,53.6,77,30.11,10.0,Calm,Calm,-,N/A,,Mostly Cloudy,0,2012-10-11 09:55:00
5:15 AM,60.8,53.6,77,30.11,10.0,Calm,Calm,-,N/A,,Mostly Cloudy,0,2012-10-11 10:15:00
5:35 AM,60.8,53.6,77,30.11,10.0,South,3.5,-,N/A,,Overcast,190,2012-10-11 10:35:00
5:55 AM,60.8,53.6,77,30.11,10.0,SSW,3.5,-,N/A,,Overcast,200,2012-10-11 10:55:00
6:15 AM,60.8,53.6,77,30.11,10.0,South,3.5,-,N/A,,Overcast,190,2012-10-11 11:15:00
6:35 AM,60.8,53.6,77,30.11,10.0,South,5.8,-,N/A,,Overcast,170,2012-10-11 11:35:00
6:55 AM,60.8,53.6,77,30.11,10.0,South,3.5,-,N/A,,Overcast,180,2012-10-11 11:55:00
7:15 AM,60.8,53.6,77,30.11,10.0,South,4.6,-,N/A,,Overcast,170,2012-10-11 12:15:00
7:35 AM,60.8,53.6,77,30.11,10.0,South,3.5,-,N/A,,Overcast,180,2012-10-11 12:35:00
7:55 AM,60.8,53.6,77,30.11,10.0,South,4.6,-,N/A,,Overcast,180,2012-10-11 12:55:00
8:15 AM,60.8,55.4,82,30.12,7.0,South,5.8,-,N/A,,Overcast,190,2012-10-11 13:15:00
8:35 AM,60.8,55.4,82,30.12,7.0,South,4.6,-,N/A,,Overcast,180,2012-10-11 13:35:00
8:55 AM,62.6,55.4,77,30.13,7.0,South,5.8,-,N/A,,Overcast,170,2012-10-11 13:55:00
9:15 AM,62.6,55.4,77,30.14,5.0,South,8.1,-,N/A,,Haze,170,2012-10-11 14:15:00
9:35 AM,62.6,57.2,82,30.15,7.0,South,10.4,-,N/A,,Overcast,180,2012-10-11 14:35:00
9:55 AM,62.6,59.0,88,30.15,7.0,SSE,9.2,-,N/A,,Overcast,160,2012-10-11 14:55:00
10:15 AM,62.6,57.2,82,30.16,7.0,SSE,8.1,-,N/A,,Overcast,160,2012-10-11 15:15:00
10:35 AM,64.4,59.0,83,30.16,7.0,SSE,10.4,-,N/A,,Overcast,160,2012-10-11 15:35:00
11:15 AM,66.2,59.0,78,30.15,10.0,South,6.9,-,N/A,,Overcast,170,2012-10-11 16:15:00
11:35 AM,68.0,59.0,73,30.15,10.0,South,9.2,-,N/A,,Mostly Cloudy,180,2012-10-11 16:35:00
11:55 AM,69.8,60.8,73,30.14,10.0,South,6.9,-,N/A,,Mostly Cloudy,170,2012-10-11 16:55:00
12:15 PM,71.6,60.8,69,30.14,10.0,South,13.8,17.3,N/A,,Scattered Clouds,190,2012-10-11 17:15:00
12:35 PM,69.8,60.8,73,30.14,10.0,South,11.5,-,N/A,,Mostly Cloudy,190,2012-10-11 17:35:00
12:55 PM,71.6,60.8,69,30.13,10.0,SSW,10.4,17.3,N/A,,Mostly Cloudy,200,2012-10-11 17:55:00
1:15 PM,73.4,60.8,65,30.11,10.0,South,9.2,-,N/A,,Scattered Clouds,180,2012-10-11 18:15:00
1:35 PM,73.4,60.8,65,30.11,10.0,South,13.8,18.4,N/A,,Scattered Clouds,180,2012-10-11 18:35:00
1:55 PM,77.0,60.8,57,30.09,10.0,SSW,12.7,19.6,N/A,,Scattered Clouds,200,2012-10-11 18:55:00
2:15 PM,77.0,60.8,57,30.08,10.0,South,13.8,17.3,N/A,,Mostly Cloudy,190,2012-10-11 19:15:00
2:35 PM,77.0,62.6,61,30.07,10.0,South,10.4,16.1,N/A,,Mostly Cloudy,190,2012-10-11 19:35:00
2:55 PM,77.0,62.6,61,30.06,10.0,SSE,11.5,-,N/A,,Mostly Cloudy,160,2012-10-11 19:55:00
3:15 PM,80.6,62.6,54,30.05,10.0,South,17.3,20.7,N/A,,Mostly Cloudy,190,2012-10-11 20:15:00
3:35 PM,78.8,62.6,57,30.05,10.0,South,16.1,21.9,N/A,,Scattered Clouds,190,2012-10-11 20:35:00
3:55 PM,80.6,62.6,54,30.05,10.0,South,17.3,20.7,N/A,,Mostly Cloudy,180,2012-10-11 20:55:00
4:15 PM,80.6,62.6,54,30.04,10.0,South,19.6,25.3,N/A,,Mostly Cloudy,190,2012-10-11 21:15:00
4:35 PM,80.6,62.6,54,30.04,10.0,SSW,16.1,23.0,N/A,,Scattered Clouds,200,2012-10-11 21:35:00
4:55 PM,80.6,62.6,54,30.04,10.0,SSW,19.6,23.0,N/A,,Scattered Clouds,200,2012-10-11 21:55:00
5:15 PM,80.6,62.6,54,30.04,10.0,South,16.1,-,N/A,,Scattered Clouds,190,2012-10-11 22:15:00
5:35 PM,80.6,62.6,54,30.03,10.0,South,19.6,-,N/A,,Scattered Clouds,190,2012-10-11 22:35:00
5:55 PM,80.6,64.4,58,30.03,10.0,South,15.0,-,N/A,,Scattered Clouds,180,2012-10-11 22:55:00
6:15 PM,80.6,64.4,58,30.03,10.0,South,13.8,-,N/A,,Scattered Clouds,180,2012-10-11 23:15:00
6:35 PM,80.6,64.4,58,30.03,10.0,South,12.7,17.3,N/A,,Scattered Clouds,180,2012-10-11 23:35:00
6:55 PM,78.8,64.4,61,30.03,10.0,South,11.5,-,N/A,,Scattered Clouds,170,2012-10-11 23:55:00
7:15 PM,78.8,64.4,61,30.03,10.0,South,10.4,-,N/A,,Scattered Clouds,170,2012-10-12 00:15:00
7:35 PM,77.0,64.4,65,30.04,10.0,South,9.2,-,N/A,,Clear,170,2012-10-12 00:35:00
7:55 PM,77.0,64.4,65,30.04,10.0,SSE,9.2,-,N/A,,Clear,160,2012-10-12 00:55:00
8:15 PM,75.2,64.4,69,30.05,10.0,SSE,10.4,-,N/A,,Clear,150,2012-10-12 01:15:00
8:35 PM,75.2,64.4,69,30.05,10.0,SSE,10.4,-,N/A,,Clear,150,2012-10-12 01:35:00
8:55 PM,73.4,64.4,73,30.05,10.0,SE,9.2,-,N/A,,Clear,140,2012-10-12 01:55:00
9:15 PM,73.4,64.4,73,30.06,10.0,SSE,10.4,-,N/A,,Clear,150,2012-10-12 02:15:00
9:35 PM,73.4,64.4,73,30.06,10.0,SE,9.2,-,N/A,,Clear,130,2012-10-12 02:35:00
9:55 PM,73.4,64.4,73,30.07,10.0,ESE,5.8,-,N/A,,Clear,120,2012-10-12 02:55:00
10:15 PM,71.6,64.4,78,30.08,10.0,SE,8.1,-,N/A,,Clear,130,2012-10-12 03:15:00
10:35 PM,71.6,64.4,78,30.08,10.0,SE,8.1,-,N/A,,Clear,130,2012-10-12 03:35:00
10:55 PM,71.6,64.4,78,30.09,10.0,SE,10.4,-,N/A,,Clear,140,2012-10-12 03:55:00
11:35 PM,71.6,64.4,78,30.09,10.0,SE,5.8,-,N/A,,Scattered Clouds,130,2012-10-12 04:35:00
11:55 PM,71.6,64.4,78,30.09,10.0,SE,8.1,-,N/A,,Scattered Clouds,130,2012-10-12 04:55:00